Regional Weather Roundup
Issued by NWS Cleveland, OH

Home | Current Version | Previous Version | Graphics & Text | Print | Product List | Glossary On
Versions: 1 2 3 4 5 6 7 8 9 10 11 12 13 14 15 16 17 18 19 20 21 22 23 24 25 26 27 28 29 30 31 32 33 34 35 36 37 38 39 40 41 42 43 44 45 46 47 48 49 50
000
ASUS41 KCLE 031802
RWRCLE
OHIO REGIONAL WEATHER ROUNDUP
NATIONAL WEATHER SERVICE CLEVELAND, OH
200 PM EDT FRI JUL 03 2015

NOTE: "FAIR" INDICATES FEW OR NO CLOUDS BELOW 12,000 FEET WITH NO
SIGNIFICANT WEATHER AND/OR OBSTRUCTIONS TO VISIBILITY.

OHZ001>008-015>018-024>027-034-035-043-044-031900-
   NORTHWEST OHIO

CITY           SKY/WX    TMP DP  RH WIND       PRES   REMARKS
DEFIANCE       CLOUDY    73  56  54 E6        29.97S
FINDLAY        CLOUDY    73  54  51 NE8       29.95F
TOLEDO EXPRESS CLOUDY    72  55  55 NE6       29.97S
TOLEDO EXEC    PTSUNNY   72  55  55 E8        29.97F
LIMA           CLOUDY    72  60  66 NE7       29.95F
$$

OHZ009>014-019>023-028>033-038-089-031900-
   NORTHEAST OHIO

CITY           SKY/WX    TMP DP  RH WIND       PRES   REMARKS
CLE-HOPKINS    PTSUNNY   74  56  53 N10       29.98S
CLE-LAKEFRONT  MOSUNNY   71  58  63 NE14      29.95S
CUY CO. ARPT   PTSUNNY   77  54  44 E10       29.97S
LORAIN-ELYRIA  PTSUNNY   75  55  49 SE5       29.96F
ASHTABULA      MOSUNNY   73  51  46 SE6       29.98S
AKRON-CANTON   PTSUNNY   76  57  51 N5        29.96F
WOOSTER        PTSUNNY   74  58  57 E5        29.96F
MANSFIELD      PTSUNNY   75  57  53 CALM      29.96F
YOUNGSTOWN     CLOUDY    75  55  49 S7        29.97S
$$

OHZ042-051>053-060>062-070>072-077>081-031900-
  SOUTHWEST OHIO

CITY           SKY/WX    TMP DP  RH WIND       PRES   REMARKS
CINC-COVINGTON CLOUDY    76  66  71 NE7       29.89F
CINC-LUNKEN    CLOUDY    75  65  70 NE6       29.88F
HAMILTON       CLOUDY    75  65  70 NE7       29.90F
DAYTON         CLOUDY    76  63  64 NE8       29.93S
WRIGHT-PAT AFB CLOUDY    76  61  58 E9        29.91F
DAYTON GENERAL CLOUDY    74  62  66 E10       29.90F
WILMINGTON     CLOUDY    70  62  76 NE12      29.90F
$$

OHZ036-037-039>041-045>050-054>059-063>069-073>076-082>088-031900-
  CENTRAL AND SOUTHEAST OHIO

CITY           SKY/WX    TMP DP  RH WIND       PRES   REMARKS
COLUMBUS       LGT RAIN  74  61  63 E6        29.92S
OSU AIRPORT    CLOUDY    75  58  55 E6        29.92F
BOLTON FIELD   DRIZZLE   72  61  68 E3        29.93F
RICKENBACK AFB NOT AVBL
NEWARK         PTSUNNY   76  61  59 NE3       29.92F
MARION         CLOUDY    76  58  53 E7        29.94F
LANCASTER      LGT RAIN  73  63  70 E5        29.92F
ZANESVILLE     NOT AVBL
NEW PHILLY     MOSUNNY   76  58  53 CALM      29.94F
$$



USA.gov is the U.S. government's official web portal to all federal, state and local government web resources and services.